Find Starlink 38247

NORAD ID: 100303 Int'l Des: 2026-184 Owner: SPXS Country: US Constellation: starlink operational

現在のビュー

3D地球を読み込み中...

About Starlink 38247

Starlink 38247 (NORAD 100303) is a starlink constellation satellite launched Aug 12, 2026 by SPXS of US. with a mass of 575.00 kg.

次回通過

Passes for default location (London). Set your location on the main map for personalized predictions.

高度履歴

Loading altitude history...

軌道要素

1 A0303U 26184C 26247.90924276 -.00253323 00000-0 -49238-2 0 9995
2 A0303 97.2848 113.1389 0002650 145.7325 214.4097 15.48498214 4964
Epoch: Sep 4, 2026 • Age: 47 hours

現在のステータス

高度 430.3 km
遠地点 / 近地点 N/A
速度 7.65 km/s
衛星直下点 -9.71°S, 174.43°W
打ち上げ日 Aug 12, 2026
運用期間 25 days
タイプ internet

技術仕様

分類 Payload
質量 575.00 kg
乾燥質量 530.00 kg
総質量 575.00 kg
長さ 0.30 m
直径 4.10 m
スパン 29.00 m
形状 Box + pan
製造者 SPXS
バスタイプ Starlink V2MO
フェーズステータス In Orbit
所有者/国 SPXS/US

Most Searched